Weather History for KAEX - January, 2012

Change the Weather History Date:

Sunday, January 1, 2012

  Actual Average Record
Temperature  
Mean Temperature 57 °F 49 °F  
Max Temperature 70 °F 59 °F 81 °F (1952)
Min Temperature 43 °F 39 °F 17 °F (1964)
Degree Days  
Heating Degree Days 8 16  
Month to date heating degree days 8 16  
Since 1 July heating degree days 820 805  
Growing Degree Days 8 (Base 50)    
Moisture  
Dew Point 47 °F    
Average Humidity 61    
Maximum Humidity 93    
Minimum Humidity 28    
Precipitation  
Precipitation 0.00 in 0.13 in 2.60 in (1911)
Month to date precipitation 0.00 0.13  
Year to date precipitation 0.00 0.13  
Snow  
Snow 0.00 in - 0.40 in (2001)
Month to date snowfall 0.0  
Since 1 July snowfall 0.0  
Snow Depth 0.00 in    
Sea Level Pressure  
Sea Level Pressure 30.26 in    
Wind  
Wind Speed 11 mph (WNW)    
Max Wind Speed 24 mph    
Max Gust Speed 36 mph    
Visibility 9 miles    
Events      
T = Trace of Precipitation, MM = Missing Value Source: NWS Daily Summary

Daily Weather History Graph

Daily Weather History Graph

Search for Another Location

Airport or City:

Trip Planner

Search our weather history database for the weather conditions in past years. The results will help you decide how hot, cold, wet, or windy it might be!

Date:

Astronomy

Jan. 01, 2012 Rise Set
Actual Time 7:09 AM CST 5:18 PM CST
Civil Twilight 6:42 AM CST 5:44 PM CST
Nautical Twilight 6:12 AM CST 6:15 PM CST
Astronomical Twilight 5:42 AM CST 6:44 PM CST
Moon 11:54 AM CST (1/1) 12:19 AM CST (1/1)
Length of Visible Light 11h 02m
Length of Day
10h 09m
First Quarter, 55% of the Moon is Illuminated
Jan 1
First Quarter
Jan 9
Full
Jan 16
Last Quarter
Jan 23
New
Jan 30
First Quarter

Hourly Weather History & Observations

Time (CST) Temp. Windchill Dew Point Humidity Pressure Visibility Wind Dir Wind Speed Gust Speed Precip Events Conditions
12:15 AM 69.8 °F - 64.4 °F 83% 30.07 in 8.0 mi SSW 13.8 mph 20.7 mph N/A   Overcast
12:53 AM 69.1 °F - 64.9 °F 87% 30.09 in 9.0 mi SW 8.1 mph - N/A   Overcast
1:19 AM 68.0 °F - 64.4 °F 88% 30.08 in 9.0 mi SW 8.1 mph - N/A   Mostly Cloudy
1:53 AM 66.9 °F - 64.0 °F 90% 30.10 in 9.0 mi SSW 6.9 mph - N/A   Scattered Clouds
2:02 AM 66.2 °F - 64.4 °F 94% 30.08 in 9.0 mi SSW 6.9 mph - N/A   Mostly Cloudy
2:28 AM 66.2 °F - 64.4 °F 94% 30.09 in 8.0 mi SSW 6.9 mph - N/A   Scattered Clouds
2:53 AM 66.9 °F - 64.0 °F 90% 30.12 in 8.0 mi West 4.6 mph - N/A   Scattered Clouds
3:00 AM 68.0 °F - 64.4 °F 88% 30.12 in 8.0 mi West 4.6 mph - N/A   Mostly Cloudy
3:38 AM 66.2 °F - 64.4 °F 94% 30.12 in 7.0 mi WSW 8.1 mph - N/A   Scattered Clouds
3:53 AM 68.0 °F - 64.4 °F 88% 30.12 in 8.0 mi WSW 6.9 mph - N/A   Mostly Cloudy
4:02 AM 68.0 °F - 64.4 °F 88% 30.12 in 8.0 mi WSW 6.9 mph - N/A   Mostly Cloudy
4:35 AM 66.2 °F - 62.6 °F 88% 30.13 in 8.0 mi WSW 8.1 mph - N/A   Mostly Cloudy
4:53 AM 66.9 °F - 64.0 °F 90% 30.14 in 8.0 mi WSW 8.1 mph - N/A   Mostly Cloudy
5:19 AM 66.2 °F - 62.6 °F 88% 30.14 in 8.0 mi WNW 5.8 mph - N/A   Overcast
5:53 AM 64.0 °F - 54.0 °F 70% 30.19 in 9.0 mi NW 18.4 mph 35.7 mph N/A   Mostly Cloudy
6:02 AM 62.6 °F - 51.8 °F 68% 30.18 in 10.0 mi NW 15.0 mph 29.9 mph N/A   Partly Cloudy
6:53 AM 57.0 °F - 39.9 °F 53% 30.24 in 10.0 mi NW 15.0 mph - N/A   Clear
7:53 AM 55.0 °F - 37.9 °F 53% 30.30 in 10.0 mi NW 15.0 mph 20.7 mph N/A   Clear
8:53 AM 55.9 °F - 37.0 °F 49% 30.35 in 10.0 mi NW 16.1 mph 21.9 mph N/A   Clear
9:53 AM 57.9 °F - 37.0 °F 46% 30.38 in 10.0 mi North 15.0 mph 21.9 mph N/A   Clear
10:53 AM 60.1 °F - 37.0 °F 42% 30.38 in 10.0 mi NNW 16.1 mph 21.9 mph N/A   Clear
11:53 AM 62.1 °F - 36.0 °F 38% 30.35 in 10.0 mi North 15.0 mph - N/A   Clear
12:53 PM 63.0 °F - 36.0 °F 37% 30.34 in 10.0 mi NNW 13.8 mph - N/A   Clear
1:53 PM 64.9 °F - 33.1 °F 31% 30.33 in 10.0 mi NNW 16.1 mph 24.2 mph N/A   Clear
2:53 PM 64.9 °F - 30.0 °F 27% 30.33 in 10.0 mi North 13.8 mph 21.9 mph N/A   Clear
3:53 PM 64.0 °F - 32.0 °F 30% 30.34 in 10.0 mi NNW 9.2 mph 17.3 mph N/A   Clear
4:53 PM 61.0 °F - 30.9 °F 32% 30.38 in 10.0 mi NNW 8.1 mph - N/A   Clear
5:53 PM 55.9 °F - 33.1 °F 42% 30.41 in 10.0 mi NNW 10.4 mph - N/A   Clear
6:53 PM 53.1 °F - 32.0 °F 45% 30.43 in 10.0 mi NW 9.2 mph - N/A   Clear
7:53 PM 50.0 °F - 33.1 °F 52% 30.45 in 10.0 mi NNW 8.1 mph - N/A   Clear
8:53 PM 48.2 °F - 30.2 °F 50% 30.45 in 10.0 mi NNW 8.1 mph - N/A   Clear
9:53 PM 48.0 °F - 30.0 °F 50% 30.48 in 10.0 mi NNW 8.1 mph - N/A   Clear
10:53 PM 46.4 °F 42.9 °F 30.2 °F 53% 30.47 in 10.0 mi NNW 6.9 mph - N/A   Clear
11:53 PM 43.0 °F 39.5 °F 30.0 °F 60% 30.49 in 10.0 mi NW 5.8 mph - N/A   Clear